Wind_Speed
14 13 11 8 8 9 10 11 12 11 8 6 6 8 8 5 5 6 6 8 8 4 4 7 8 7 7 10 12 12 12 13 12 11 13 15 18 24 29 33 35 38 41 42 44 47 49 50 51 52 52 52 52 52 53 52 52 52 51 50 48 46 46 47 45 42 41 40 38 37 36 35 34 33 33 32 30 29 29 28 28 28 29 29 30 30 30
14 15 11 9 10 12 12 13 13 13 11 9 9 9 11 11 10 9 12 14 11 6 6 9 11 11 11 14 17 16 15 14 13 13 14 16 17 20 26 31 35 39 42 44 46 48 49 50 51 52 52 53 53 53 52 52 52 51 50 49 48 47 47 46 44 42 41 40 38 37 36 35 35 34 34 33 32 31 30 29 29 29 29 29 30 30 30
12 13 11 10 11 12 13 13 13 12 12 10 9 9 8 9 11 11 13 15 11 5 4 9 13 13 11 11 12 12 11 12 13 14 16 20 24 24 26 29 33 37 41 44 46 47 48 50 51 52 53 54 54 53 52 52 52 51 50 48 47 47 47 45 43 41 40 39 38 37 37 36 35 35 34 34 33 33 32 30 30 30 30 30 30 30 31
8 6 5 7 8 10 13 15 13 13 11 7 5 4 3 3 6 8 9 8 5 3 5 10 11 9 7 7 8 10 11 12 13 14 17 22 28 32 34 33 33 37 41 44 46 47 49 50 51 52 53 53 52 52 52 52 51 50 49 47 47 47 47 45 43 41 40 40 39 38 37 36 36 34 34 34 34 33 32 31 31 31 31 31 31 31 31
6 3 2 4 5 8 11 12 12 14 11 7 5 2 3 3 2 5 5 3 5 8 9 9 7 5 4 4 6 9 11 13 14 15 18 23 27 31 35 35 34 37 40 43 45 47 49 51 51 52 52 52 52 52 52 51 51 50 49 47 46 47 47 45 42 41 41 39 38 38 37 36 35 34 34 35 35 34 33 32 32 32 31 31 31 32 32
5 4 4 4 7 8 5 2 6 12 11 8 7 5 6 6 4 4 5 7 10 11 10 9 8 6 5 5 6 8 10 13 16 17 19 22 25 28 30 31 33 36 40 43 44 46 48 50 51 52 51 50 50 50 50 50 50 49 48 47 46 46 45 43 42 41 40 38 37 37 36 35 35 35 35 35 35 34 33 33 34 33 32 31 32 32 32
6 6 5 6 8 6 1 6 4 5 5 6 10 11 10 9 10 11 10 11 13 13 14 14 13 11 11 10 8 8 9 12 15 19 20 21 22 24 25 27 30 34 39 43 44 46 48 47 48 50 49 48 48 48 49 49 48 48 47 46 45 44 44 42 40 39 38 37 36 35 35 35 35 36 36 36 35 34 34 34 34 32 31 31 32 32 32
5 5 6 8 3 1 2 3 7 4 2 2 7 10 10 12 12 12 11 13 14 15 17 18 16 14 13 13 10 8 10 12 15 19 20 20 21 21 22 25 29 32 38 42 44 46 45 45 46 48 48 48 48 48 48 47 46 46 45 44 43 42 42 40 39 38 37 36 35 34 34 35 36 36 36 35 34 34 34 34 33 32 32 32 32 32 31
5 6 7 5 3 3 6 3 5 5 3 4 2 4 6 10 13 12 12 13 15 17 19 22 21 15 10 10 9 7 13 14 15 17 18 19 20 18 20 23 26 30 34 38 41 42 42 43 46 46 46 47 47 46 45 45 45 45 44 43 42 41 40 39 37 36 35 34 34 33 34 35 36 36 35 34 34 34 34 34 34 33 32 32 32 32 32
5 7 7 5 4 4 5 2 5 6 6 7 6 3 4 8 13 15 14 13 16 17 18 24 25 15 8 6 4 9 17 16 16 16 16 15 15 15 17 19 22 27 32 35 38 38 38 40 43 44 45 47 46 45 44 44 44 44 43 42 41 40 39 37 35 34 33 33 32 32 34 35 35 35 34 34 33 33 33 33 33 32 32 32 32 32 32
4 6 7 6 5 3 2 4 7 8 8 9 7 6 2 6 14 18 17 15 17 18 19 24 21 9 4 4 7 16 20 16 13 15 15 12 10 11 13 16 20 24 29 33 34 35 36 39 41 42 44 46 46 45 44 43 42 43 42 41 39 38 37 35 34 33 32 31 31 32 33 34 33 33 33 32 32 32 32 32 32 32 31 32 32 32 32
5 7 7 5 4 1 4 7 10 12 12 8 6 8 2 7 13 17 18 17 18 21 23 21 13 6 5 8 13 21 20 11 10 13 12 10 7 7 11 15 19 21 26 31 32 34 36 37 39 41 43 44 44 44 43 42 41 41 39 36 34 34 33 33 33 32 31 31 31 32 32 31 31 30 30 29 30 31 31 31 31 31 31 31 32 31 31
7 9 8 5 4 2 6 11 13 13 10 4 5 5 1 8 12 17 20 20 20 23 24 17 11 14 20 19 18 20 14 7 7 9 8 8 5 3 10 16 18 20 24 28 29 31 33 34 37 40 42 43 42 41 40 40 39 36 33 31 31 31 32 32 32 31 31 30 30 29 28 27 27 28 28 28 30 30 30 30 30 31 31 31 31 31 30
6 7 7 6 3 4 11 15 11 9 4 3 2 2 4 8 14 19 20 21 23 26 26 19 17 25 30 25 20 17 9 9 9 7 6 7 6 3 9 17 21 21 23 25 26 28 29 31 35 38 39 40 40 39 38 37 34 32 30 29 29 30 30 30 30 30 29 29 28 27 27 26 27 28 27 28 29 29 29 30 30 30 30 30 30 30 29
4 6 6 6 3 6 16 15 7 6 4 1 3 6 6 10 17 20 20 22 26 30 30 26 25 28 31 29 24 19 12 14 12 10 10 10 8 7 8 16 22 24 25 27 27 28 29 31 34 35 36 37 36 36 35 32 30 29 27 27 28 28 28 28 28 27 26 26 26 26 26 26 27 27 26 27 28 28 28 29 30 30 29 29 29 30 30
3 5 4 1 2 6 13 10 3 4 4 5 7 8 8 11 18 20 21 24 29 32 30 28 27 30 33 33 30 23 17 19 18 14 15 14 12 10 8 11 19 24 27 29 30 31 31 32 32 32 33 34 34 33 31 29 27 26 25 25 26 26 26 26 25 25 24 24 25 25 26 25 25 26 26 27 28 28 28 29 30 31 30 30 31 31 31
2 3 0 3 6 8 6 2 3 4 3 4 9 9 9 13 16 18 21 25 30 32 29 26 27 30 34 34 32 27 22 22 23 19 18 18 16 14 12 11 15 19 24 27 30 31 32 31 31 31 32 32 32 32 30 27 26 24 23 24 24 24 24 25 24 24 24 24 25 25 24 24 25 25 26 28 29 29 29 30 31 32 31 31 32 31 30
4 3 2 6 10 12 6 4 4 3 2 4 9 10 11 14 15 17 21 24 28 30 27 25 27 31 34 33 32 29 26 25 25 23 22 21 19 19 18 17 15 16 19 23 26 29 31 31 32 32 31 30 30 30 29 26 25 24 23 23 24 24 24 24 24 24 24 24 25 24 24 24 24 24 25 27 28 29 29 31 31 31 31 32 32 31 31
4 2 3 9 15 14 5 6 4 1 4 8 13 14 15 14 13 15 20 22 25 28 25 23 26 31 32 32 32 31 29 27 25 24 23 22 21 21 21 21 20 20 20 21 23 25 27 28 30 31 30 29 29 29 28 27 27 26 25 24 24 24 23 23 23 23 24 25 25 25 26 26 25 24 26 28 29 30 31 32 32 32 32 32 32 32 31
4 2 5 14 18 10 3 5 2 9 13 17 20 20 19 16 13 14 18 20 23 26 24 23 25 29 31 31 32 33 31 28 26 25 23 21 20 20 20 20 22 23 23 23 22 23 23 24 25 27 28 28 28 28 28 28 28 27 26 25 24 23 23 23 23 23 24 24 25 26 27 27 27 27 27 28 30 31 31 31 31 31 31 30 30 29 27
3 2 7 16 16 3 4 3 13 18 21 23 23 21 20 18 15 16 17 19 21 23 22 22 24 27 30 31 31 32 31 29 26 24 22 21 20 19 19 18 19 20 21 21 21 22 22 22 23 25 26 27 27 27 27 26 26 25 25 24 23 22 21 21 22 22 23 23 24 26 27 28 29 29 29 30 31 31 31 31 30 30 29 28 27 26 24
4 5 9 13 9 4 8 17 23 23 24 24 23 22 21 18 15 16 19 20 20 20 20 21 22 25 28 29 30 31 31 30 26 22 20 21 20 19 18 18 18 19 18 17 18 18 18 18 20 22 24 25 25 25 26 26 26 25 25 24 23 22 22 22 23 23 24 24 25 26 27 29 30 31 31 31 32 32 32 31 30 30 29 28 26 24 23
6 10 14 14 10 10 16 22 24 25 26 25 24 23 22 19 15 15 18 21 21 21 21 20 20 23 25 26 29 31 29 27 27 23 20 19 20 19 19 19 19 19 17 15 15 15 15 14 15 17 19 20 21 22 23 24 25 26 26 26 26 26 25 25 25 25 26 27 27 28 29 30 31 32 32 32 32 32 33 33 31 30 29 27 25 23 22
9 13 17 17 14 14 18 21 23 24 23 22 24 23 22 19 17 15 16 18 20 21 21 19 19 21 22 23 27 30 28 25 28 27 20 18 18 18 19 19 18 18 18 16 15 14 13 12 12 13 15 15 16 18 19 20 22 24 25 25 26 26 26 26 26 26 26 27 27 28 29 30 31 32 33 33 33 33 33 33 32 30 29 27 25 23 21
14 17 20 18 15 16 18 20 21 19 16 17 20 21 19 17 15 14 14 16 17 18 18 19 19 19 19 20 23 27 26 23 25 27 24 21 18 17 18 18 17 17 17 17 15 14 13 12 12 13 13 13 13 14 15 15 17 19 21 23 23 24 24 24 23 24 24 25 25 26 27 28 29 29 30 31 31 32 32 31 31 30 28 27 25 23 22
20 22 23 18 14 16 18 18 16 15 13 13 16 18 16 14 12 12 13 14 15 14 13 15 17 16 17 19 20 23 24 21 21 25 26 23 20 18 17 16 15 15 15 15 14 13 12 12 12 13 13 13 12 13 13 13 13 15 16 18 19 20 20 20 20 20 20 20 21 22 23 23 24 24 25 25 25 25 25 26 27 27 27 26 24 23 21
23 24 23 18 16 21 24 20 16 14 12 12 13 14 15 13 11 11 13 13 12 12 10 11 13 13 15 18 18 18 19 19 19 23 25 23 21 19 16 13 12 12 12 13 14 14 13 12 12 12 12 12 13 14 14 12 12 12 13 13 14 15 17 17 18 18 18 17 17 17 18 19 18 18 18 18 17 16 17 18 21 22 23 23 22 21 19
26 26 23 18 17 22 24 20 16 14 12 11 11 12 12 13 12 11 11 11 10 11 10 8 9 10 13 17 16 15 16 17 18 20 23 23 22 20 15 11 10 11 11 11 13 14 13 12 11 11 12 12 13 15 14 13 12 12 12 11 11 12 14 16 16 16 16 16 15 15 14 15 15 14 13 13 13 13 13 14 15 16 18 19 19 19 18
27 26 25 21 20 22 23 22 21 19 15 13 11 10 10 11 12 12 12 11 10 10 9 8 8 8 9 12 14 13 14 15 17 19 22 23 22 20 17 14 11 10 10 10 12 14 14 13 12 12 13 13 13 14 14 12 12 12 11 11 10 10 12 13 14 14 14 14 13 13 12 12 12 12 12 11 11 11 12 13 14 15 16 17 18 19 19
26 25 25 25 24 25 26 26 24 22 21 18 14 11 9 8 10 12 13 14 14 13 11 10 9 7 5 8 10 10 11 13 16 18 20 21 21 20 19 18 14 12 13 14 14 15 15 14 14 13 13 13 13 13 14 14 13 12 11 10 9 9 10 11 12 12 12 12 12 12 11 10 11 12 12 12 13 13 14 15 16 17 17 18 19 19 18
25 23 24 26 26 26 27 26 25 24 22 19 16 15 12 10 9 10 11 12 15 16 15 14 11 6 3 3 5 6 6 8 11 15 17 19 19 18 17 19 19 18 17 17 17 16 16 15 15 14 12 12 12 13 14 14 13 11 9 8 8 8 8 9 11 11 11 11 11 11 10 10 12 13 15 16 17 18 18 18 18 18 19 19 19 18 17
24 22 23 26 27 27 27 27 26 26 24 20 18 17 16 13 11 10 9 9 11 14 16 16 13 8 5 2 2 4 5 5 6 8 11 14 17 16 13 14 16 19 20 20 19 18 16 15 14 14 13 11 11 12 13 13 11 9 8 8 6 5 6 7 9 10 11 10 10 10 8 8 10 14 17 19 20 20 20 20 20 20 21 20 20 20 18
24 23 24 28 28 28 28 28 27 26 25 22 19 17 16 14 12 11 10 9 8 10 13 16 15 12 7 4 2 2 3 4 4 5 7 9 12 14 13 11 10 13 17 19 20 19 17 14 13 13 12 12 12 12 12 11 10 9 8 8 6 4 3 5 6 9 10 10 10 10 9 8 9 12 15 18 18 19 20 21 22 22 21 21 21 20 18
22 22 22 25 26 26 26 27 27 26 25 23 22 20 17 14 12 13 12 9 7 8 8 10 12 12 10 7 4 3 4 6 5 4 5 8 10 11 12 12 10 9 10 12 14 15 16 14 12 11 10 10 11 11 10 9 8 8 8 7 6 4 3 2 4 7 10 11 11 11 10 10 10 12 14 16 16 16 18 20 21 21 21 23 24 23 21
20 19 20 21 24 25 24 24 26 27 26 25 24 23 20 15 13 13 13 9 6 4 3 3 4 7 10 10 7 5 7 9 7 3 3 7 8 9 10 12 11 9 7 6 7 10 13 13 11 9 9 9 9 9 9 9 8 7 7 6 5 4 2 1 3 5 8 11 12 12 13 13 14 15 16 18 19 19 19 21 22 22 23 25 26 25 23
20 20 20 21 23 25 25 24 25 27 27 26 26 25 22 19 16 15 14 10 6 2 2 3 3 2 4 6 6 5 6 8 8 6 6 6 6 7 8 9 9 8 7 6 6 7 9 11 10 8 7 7 8 8 8 8 8 7 6 5 4 4 3 2 2 4 7 9 11 12 14 16 19 20 21 21 21 20 20 21 22 23 24 25 25 23 21
22 21 20 20 21 23 24 24 24 25 26 26 28 28 26 22 19 17 14 10 7 6 5 5 5 4 3 2 2 2 3 6 7 6 6 7 7 7 7 7 7 8 9 8 8 7 8 10 10 9 6 6 7 7 7 7 7 6 6 5 5 4 4 4 4 5 7 9 11 12 15 18 21 24 24 23 22 21 21 21 22 22 23 23 22 22 22
24 23 21 19 20 22 22 22 22 23 25 27 30 32 30 25 22 19 15 13 12 11 9 8 7 6 4 2 1 1 2 4 6 6 7 7 7 7 8 9 9 10 10 10 10 10 10 11 12 11 9 6 6 6 7 7 6 5 4 4 6 6 6 5 6 6 8 10 12 15 17 20 23 24 24 23 22 22 22 22 22 22 22 22 22 22 22
24 25 23 20 19 20 22 22 22 23 25 27 30 32 31 28 24 20 19 18 16 13 12 11 9 6 5 4 3 3 3 5 6 6 6 6 6 7 8 9 10 11 11 12 12 11 10 10 11 12 11 8 7 7 9 9 8 6 5 5 6 7 8 7 7 8 10 11 14 17 19 22 23 24 24 24 24 23 22 22 22 23 23 23 23 23 22
21 23 24 23 21 20 21 21 23 23 24 26 29 31 31 31 28 24 23 22 19 16 13 12 12 11 10 9 7 5 4 6 7 6 5 6 7 8 8 8 10 10 11 12 13 12 11 9 9 11 12 11 9 10 11 11 10 9 8 8 8 9 9 9 9 10 12 14 16 18 20 23 24 25 25 25 24 23 23 23 23 23 24 24 24 23 22
18 20 22 23 24 23 22 21 21 22 23 25 28 30 31 31 30 29 27 25 22 19 17 16 16 16 14 13 11 9 6 5 4 4 5 5 5 7 7 9 10 11 11 12 13 13 12 10 9 9 10 11 11 11 12 12 12 11 10 10 10 11 11 11 12 13 15 17 19 21 22 24 25 26 25 24 23 23 23 23 23 23 23 23 22 21 21
17 18 19 21 23 25 25 23 22 22 22 23 25 26 28 30 30 29 28 25 23 21 21 21 20 18 17 16 14 12 10 10 9 6 4 4 4 5 6 7 9 10 10 11 11 11 11 11 10 10 10 10 11 11 11 11 12 12 12 12 12 12 13 14 16 17 17 19 21 23 24 25 25 24 23 22 22 22 21 21 21 21 21 20 20 19 19
15 16 16 17 19 22 24 25 25 24 23 23 23 24 25 27 28 28 27 27 26 24 22 22 21 20 19 18 17 17 16 16 14 13 11 10 8 7 7 7 7 8 9 8 7 7 8 9 10 11 11 10 10 10 10 11 12 14 15 15 15 15 16 17 19 19 20 21 23 24 24 24 24 23 23 23 22 22 21 20 20 19 19 18 17 17 17
14 14 13 13 15 18 20 22 24 24 23 21 22 23 24 24 25 26 26 27 27 27 25 24 23 24 23 22 21 22 22 19 17 16 15 13 12 12 10 8 6 5 4 2 0 1 1 1 5 7 8 9 10 11 11 12 14 16 17 18 19 20 21 22 22 23 24 24 25 25 25 25 24 22 22 23 23 22 21 20 19 19 18 17 16 16 16
13 13 11 10 11 14 16 18 21 22 22 21 22 22 22 21 22 23 23 23 24 25 25 25 24 24 25 25 25 25 23 21 20 19 19 19 20 18 13 9 7 7 5 3 5 8 9 7 7 9 10 11 13 15 16 17 18 20 22 23 25 26 27 27 28 28 27 27 26 26 25 26 25 24 23 22 22 22 21 20 20 19 18 17 16 16 16
12 13 13 11 9 9 11 14 16 18 20 22 22 21 19 19 20 22 22 21 20 20 22 23 23 23 23 24 23 23 23 23 22 22 21 21 21 18 13 10 10 10 8 7 8 11 12 12 11 13 14 15 17 19 21 22 23 24 26 27 29 30 30 31 31 30 29 28 27 26 26 26 26 25 24 23 22 21 20 20 19 19 17 16 16 15 14
12 13 14 14 12 10 9 10 12 15 17 19 20 19 18 17 18 20 22 23 21 17 16 18 19 20 21 21 22 22 23 24 25 24 22 20 18 17 15 14 13 12 12 14 15 14 14 17 19 19 19 20 21 23 24 25 26 26 27 29 30 30 30 30 30 30 29 28 27 27 26 26 25 24 23 22 21 20 19 19 19 18 17 16 16 15 14
12 14 15 16 15 12 9 7 9 12 14 16 17 18 18 17 17 18 21 25 24 21 18 16 16 17 18 20 21 22 22 24 26 26 24 21 20 20 19 18 16 16 16 19 20 18 17 18 22 24 25 25 26 26 27 27 27 27 28 29 29 29 29 29 29 29 28 27 26 25 25 24 23 23 21 20 20 19 18 17 17 17 16 15 15 14 13
11 14 16 16 15 13 10 7 6 8 11 13 13 15 16 17 18 19 21 23 24 23 21 18 17 16 16 17 19 20 21 23 25 26 26 25 24 23 22 21 20 19 18 19 20 20 18 17 18 21 24 26 26 27 27 27 27 27 27 27 27 27 27 27 27 26 26 26 25 25 24 23 22 21 21 20 19 18 17 17 16 16 15 14 14 13 12
10 13 16 16 16 14 11 7 4 5 8 10 11 12 14 15 17 18 20 21 21 21 21 21 19 17 15 15 17 18 18 18 20 22 24 26 28 28 27 26 25 24 22 22 23 22 21 20 21 22 23 25 26 27 27 27 28 28 28 27 27 26 25 25 24 24 24 25 24 24 24 23 22 21 20 19 19 18 18 17 17 16 16 15 15 14 13
9 12 14 16 16 16 14 10 6 4 5 7 10 11 12 14 15 16 16 17 18 19 20 21 21 20 17 15 17 18 18 18 17 17 20 22 25 26 27 28 28 28 28 28 28 27 27 26 26 25 25 26 27 28 28 28 28 28 28 27 27 25 24 23 23 23 23 23 22 22 22 21 20 19 19 18 18 17 17 17 17 16 16 16 15 14 13
8 11 12 14 15 16 17 16 11 5 3 3 6 8 10 11 12 13 13 14 16 17 17 18 19 20 20 18 18 19 21 22 21 20 20 21 22 23 24 25 26 27 28 29 29 29 28 28 27 26 26 26 27 27 27 27 27 27 26 24 23 22 22 21 20 20 20 19 19 18 18 18 17 17 18 17 17 16 16 16 15 15 14 14 13 12 12
Wind_Direction
271 278 282 279 277 271 269 272 275 277 272 243 225 237 255 267 254 263 308 307 285 295 308 282 286 293 283 282 287 295 298 290 285 282 265 242 229 225 223 221 218 216 214 212 211 211 211 210 210 211 211 210 212 215 216 215 215 218 220 221 222 222 222 223 224 224 225 226 227 228 229 228 228 229 230 231 231 231 230 230 230 231 232 235 237 238 240
275 273 271 267 264 266 267 263 262 266 264 254 247 248 248 241 235 250 276 285 285 287 301 307 308 310 309 298 295 300 303 302 302 297 282 267 248 229 222 223 222 219 218 215 213 212 211 210 210 210 210 210 212 215 216 215 215 218 220 221 221 221 222 222 223 224 225 226 227 227 228 228 228 229 230 230 230 230 230 229 229 229 230 232 235 237 238
272 270 267 257 251 257 264 263 258 255 255 253 249 252 251 241 238 239 250 268 276 266 294 312 301 301 308 302 300 309 313 315 314 301 287 278 268 253 241 235 230 225 221 216 213 211 209 210 211 211 211 212 213 214 214 214 215 217 220 221 220 220 221 222 223 223 224 225 226 227 228 228 229 229 230 231 231 230 230 229 229 229 229 230 232 235 237
270 268 263 256 255 259 262 260 254 245 242 238 228 244 270 252 244 238 233 247 274 323 334 312 292 290 304 310 322 328 323 321 316 301 289 280 272 264 255 247 238 230 222 215 212 212 210 210 210 210 211 211 210 210 212 214 214 215 218 220 220 219 221 222 222 222 223 225 226 227 228 228 229 230 230 231 232 231 230 229 229 229 229 229 230 232 236
271 260 262 280 274 262 256 249 231 221 217 203 184 169 26 18 285 247 233 263 339 339 327 312 292 283 293 311 324 319 314 313 304 292 285 279 272 266 260 253 244 234 224 216 215 215 212 210 211 211 210 210 210 211 212 212 212 214 216 218 218 219 220 222 223 222 223 225 226 228 228 229 230 231 232 232 233 232 232 231 232 231 231 230 230 231 234
268 278 300 281 247 240 253 281 205 201 194 176 157 107 45 35 18 335 312 331 340 333 321 309 294 287 290 295 299 302 305 304 297 290 285 282 278 270 261 254 246 237 228 220 216 217 216 213 212 210 207 209 210 209 209 210 210 212 215 216 217 218 220 222 222 222 223 225 227 228 229 229 230 231 232 233 233 234 234 235 235 235 234 234 233 232 233
267 297 287 235 224 221 86 44 58 174 164 138 127 98 59 37 24 4 342 336 335 328 319 310 295 281 277 276 281 301 307 302 299 294 289 290 288 275 260 249 240 233 227 220 215 216 215 210 206 204 204 206 206 205 207 209 209 211 214 215 216 217 219 221 221 222 223 225 226 228 228 229 230 232 233 233 234 234 235 236 237 237 237 237 238 236 236
253 277 236 216 238 310 181 54 35 44 68 126 141 117 69 39 28 9 341 334 333 324 318 315 305 289 276 260 255 296 322 316 308 302 298 300 296 278 257 245 236 226 220 216 214 214 210 203 201 204 204 205 205 205 208 210 209 211 213 215 216 217 218 220 221 221 223 224 225 226 228 229 231 232 233 234 234 235 236 238 239 239 239 240 241 241 239
232 247 240 240 323 299 205 159 31 10 338 320 249 149 87 47 32 9 343 337 336 330 325 322 315 303 282 248 241 302 337 332 317 309 305 304 295 273 251 240 232 222 214 211 210 208 203 199 201 204 203 203 204 203 205 208 209 210 212 214 216 217 218 219 220 221 222 223 224 225 227 229 230 232 233 234 234 235 236 238 239 239 240 240 241 242 241
232 248 254 253 255 218 182 119 6 343 319 308 293 217 114 52 25 5 351 345 341 338 334 327 319 303 266 241 264 331 339 334 325 318 316 311 294 266 244 233 224 216 211 208 206 204 199 197 200 202 201 201 201 201 203 205 206 208 211 214 216 217 218 218 219 220 221 222 223 225 227 229 230 231 233 234 234 235 237 238 239 240 241 242 243 244 244
233 239 243 240 226 191 85 356 338 335 319 296 268 225 169 38 17 4 356 349 346 346 338 328 323 307 246 261 325 333 330 328 326 325 329 327 296 254 231 224 219 212 207 205 203 201 198 197 199 202 201 200 200 201 203 204 205 207 211 215 217 218 219 219 220 220 221 222 224 226 228 230 231 233 234 235 236 237 239 240 241 242 243 244 245 245 246
242 240 240 252 254 282 6 336 328 333 327 305 242 211 189 30 19 9 360 346 341 345 342 337 340 354 331 312 314 321 324 326 327 326 336 345 316 244 212 211 216 211 203 200 199 197 198 199 200 201 200 199 201 202 202 202 205 209 213 216 218 219 220 222 222 222 223 224 225 227 230 231 233 234 235 236 237 238 239 240 241 242 242 243 244 245 245
246 240 237 260 269 352 351 325 326 337 331 283 207 196 42 22 18 13 0 342 336 342 344 344 342 334 334 330 317 316 328 4 360 339 346 3 1 222 197 195 199 201 198 196 196 196 197 199 198 198 199 200 201 201 201 203 207 211 215 216 217 219 221 223 224 225 225 226 227 229 231 232 233 234 234 234 236 237 238 238 239 240 240 241 243 244 245
241 238 242 260 252 32 353 323 324 358 353 212 175 26 18 26 25 14 356 340 338 341 342 341 332 332 341 348 338 328 356 53 39 15 21 29 41 110 177 179 180 186 189 189 192 192 193 196 196 197 199 199 199 200 202 206 210 212 214 214 215 218 220 222 225 226 227 228 229 230 231 231 232 233 233 234 236 237 237 238 239 240 240 241 243 245 246
226 224 231 249 235 20 356 334 333 32 26 338 18 5 4 32 30 12 350 340 342 342 340 337 335 338 347 358 356 352 25 62 54 41 50 54 64 89 142 166 171 176 179 181 184 185 187 192 195 197 197 197 198 200 203 206 209 210 211 213 214 217 219 222 225 226 227 228 228 229 231 231 232 234 234 235 237 237 238 239 240 242 243 243 245 246 247
224 216 206 262 299 353 358 355 37 80 54 32 20 6 360 22 26 10 349 341 342 344 340 336 338 344 350 359 6 5 25 57 61 54 57 64 69 76 101 149 165 170 174 177 179 181 183 188 192 195 196 195 196 199 201 203 204 205 207 209 211 215 218 220 222 223 224 226 227 229 231 231 232 234 235 237 238 239 240 241 242 244 245 245 247 248 248
283 250 186 4 330 330 346 39 122 119 99 23 5 2 357 5 12 5 350 341 340 344 344 338 342 349 352 1 11 11 19 47 60 60 59 61 65 73 90 125 151 162 169 173 177 178 180 185 190 193 195 195 194 195 197 198 197 198 199 201 204 209 212 214 217 218 220 223 225 227 229 231 232 234 236 238 239 240 241 242 243 244 246 247 248 249 250
281 270 9 2 339 332 316 193 167 124 100 357 348 348 350 356 1 357 349 343 339 342 344 339 342 350 353 359 11 19 26 42 55 60 62 61 64 73 87 105 122 139 154 164 171 173 176 181 186 190 195 197 196 194 193 191 189 188 189 192 197 201 205 210 214 216 219 223 225 226 229 232 233 234 236 239 240 241 242 243 243 244 246 247 249 250 251
302 285 28 359 337 325 294 188 179 343 334 324 326 328 334 343 349 347 345 343 338 339 341 337 338 347 351 355 8 22 32 41 49 55 59 60 61 66 77 92 104 117 130 141 153 163 169 175 180 185 191 196 197 195 191 188 188 187 187 191 196 199 203 208 212 216 220 222 224 227 229 230 232 233 236 240 242 242 243 244 244 245 246 247 248 249 251
328 296 341 343 333 317 190 156 316 326 323 317 315 317 320 324 329 333 336 336 334 335 338 336 336 343 349 356 10 22 31 41 49 53 55 58 62 65 70 81 92 101 110 118 128 139 150 160 170 177 183 188 191 192 190 190 191 192 191 192 195 198 201 205 209 214 218 221 224 227 228 228 228 229 231 236 240 242 243 244 244 245 246 247 248 249 250
333 313 335 343 340 324 158 306 313 317 319 314 308 308 311 315 322 325 326 330 330 329 332 336 335 338 346 358 10 20 28 37 47 54 56 57 59 63 65 70 78 86 94 104 113 120 129 141 154 164 171 177 181 184 188 190 191 193 193 193 194 196 199 202 204 208 212 215 219 224 227 229 228 227 228 231 235 239 241 242 243 245 247 248 249 250 251
359 351 340 339 334 283 286 303 305 309 315 312 305 303 303 308 317 319 317 322 326 325 329 335 333 335 345 357 7 17 27 35 39 49 60 59 56 60 63 64 70 76 81 92 104 112 120 132 146 156 164 171 174 178 182 185 187 190 193 194 195 198 200 203 204 205 208 211 214 218 222 226 228 228 229 230 232 236 239 240 240 243 244 246 247 248 249
341 339 334 329 314 282 283 293 298 304 309 306 299 297 298 300 306 308 309 315 319 322 329 337 337 337 346 357 6 15 25 33 34 40 59 67 60 59 63 63 64 66 69 80 94 103 111 124 140 152 160 167 174 178 183 186 187 190 193 195 197 199 202 205 207 208 210 212 213 215 218 222 226 229 231 232 233 236 238 240 240 241 242 242 243 243 243
333 337 336 328 311 293 292 299 302 303 304 301 294 293 296 298 297 296 300 306 310 314 324 336 342 345 351 1 11 14 18 28 32 35 53 72 67 60 64 64 60 59 60 67 79 89 96 109 125 138 147 156 166 174 181 187 191 195 198 200 202 203 204 207 210 213 216 217 218 219 219 220 224 227 230 233 234 235 237 239 240 240 240 239 239 239 239
347 346 342 332 313 303 308 312 309 305 305 302 296 295 300 300 291 285 289 296 299 304 314 329 341 350 357 3 12 14 13 21 28 30 41 60 63 56 59 60 56 56 57 58 69 82 89 97 110 119 125 132 142 151 160 170 181 190 196 200 202 203 205 207 209 212 216 219 220 222 222 223 225 227 230 233 235 236 237 238 239 240 239 237 236 236 235
355 351 348 342 331 329 334 332 322 316 315 306 296 297 302 300 290 278 275 283 294 298 304 321 335 351 1 3 10 16 15 19 27 28 33 45 49 46 48 51 50 53 57 57 63 75 85 95 108 116 115 116 124 134 141 149 162 175 184 189 193 196 197 198 201 205 210 213 215 218 220 222 224 227 229 231 232 234 236 236 236 236 236 235 234 233 230
360 359 357 352 345 345 348 346 339 335 332 318 306 302 299 294 288 279 271 273 285 290 295 313 329 347 4 7 12 18 18 20 28 31 31 35 35 32 33 37 41 46 52 57 62 68 76 88 100 108 108 109 116 121 122 127 141 155 163 170 179 186 188 189 190 194 199 201 202 206 210 211 213 216 220 221 222 225 230 234 234 232 231 230 229 227 224
1 2 2 359 347 341 344 350 356 359 352 333 319 313 306 295 287 282 277 274 277 280 285 305 324 342 1 9 14 18 19 20 26 29 28 27 25 23 22 24 28 33 41 53 62 66 71 79 87 93 97 102 108 109 106 108 120 130 134 139 150 167 178 183 185 187 190 191 190 190 193 195 196 197 200 205 210 214 219 224 226 226 223 220 218 215 214
359 359 1 1 355 350 353 2 7 7 2 352 339 329 320 308 295 287 281 275 270 271 277 293 311 330 359 14 17 16 16 18 20 22 22 19 16 16 20 21 23 28 38 52 61 62 65 70 75 79 85 92 98 97 92 93 103 112 118 122 130 146 161 170 177 181 184 187 187 182 180 181 182 183 186 192 199 206 210 212 213 212 208 203 201 200 199
356 358 0 2 2 2 4 6 4 1 1 2 359 349 336 319 303 295 288 277 267 261 262 272 286 306 354 23 23 18 18 20 19 18 17 11 5 7 16 21 27 36 44 47 48 48 51 56 60 66 73 80 85 85 83 84 89 95 102 111 121 135 147 158 167 173 179 186 187 182 179 182 184 184 185 187 191 198 202 202 201 199 193 186 184 185 182
355 359 3 5 6 7 6 4 2 360 360 2 3 0 354 339 317 306 298 286 273 265 261 262 264 269 297 3 20 21 21 22 21 21 20 11 358 356 9 18 19 22 27 30 34 38 40 45 50 54 57 62 69 75 78 79 78 81 89 98 106 119 132 146 158 165 172 180 183 184 189 194 194 195 194 191 191 194 197 197 195 191 183 174 168 166 167
357 0 5 7 9 10 8 5 2 1 2 3 3 0 358 353 336 320 309 295 280 270 266 262 258 257 261 282 358 10 14 24 23 23 24 12 354 346 354 8 12 13 13 16 22 28 32 37 43 45 44 47 53 60 67 69 66 67 77 84 85 93 105 119 138 149 155 161 166 173 184 195 201 203 199 193 190 189 187 183 177 171 166 159 149 146 155
1 1 4 6 7 8 7 5 3 1 2 3 3 0 360 0 354 343 333 317 290 271 264 261 259 259 254 231 225 307 341 6 7 2 8 3 351 343 342 348 1 11 10 8 9 13 18 27 36 37 37 39 42 45 52 58 55 53 60 66 63 61 78 100 119 132 138 142 147 155 170 190 205 205 196 188 186 183 173 162 153 148 147 145 139 137 142
8 6 4 6 8 8 7 6 7 6 5 7 9 10 10 7 0 355 349 332 294 267 260 261 262 261 255 242 233 274 316 323 328 352 356 343 339 345 346 342 345 3 10 4 357 357 2 12 25 32 32 34 37 38 37 40 43 42 43 46 43 34 43 89 119 128 132 136 141 149 162 174 184 188 181 172 165 158 148 143 142 144 145 145 142 139 138
11 11 9 10 13 14 12 11 12 14 15 15 15 18 22 21 8 358 357 351 324 281 244 233 248 253 254 257 264 289 315 314 306 304 320 316 322 340 345 339 341 353 1 358 348 346 349 356 6 21 28 28 34 36 27 19 23 29 28 25 17 2 2 61 142 144 141 143 146 151 156 157 158 161 158 149 141 136 134 137 143 146 145 144 144 145 145
12 12 12 14 18 19 19 16 15 18 22 22 20 24 31 35 27 14 9 12 21 47 139 147 148 200 237 255 271 290 306 305 291 269 267 285 306 327 331 328 329 331 328 329 335 339 343 344 345 356 16 22 25 28 18 6 4 8 7 2 348 328 312 268 203 172 158 154 154 155 157 156 152 148 145 141 139 139 141 144 147 148 145 144 146 149 149
16 13 13 15 18 20 21 19 18 20 23 27 29 31 34 39 41 34 25 31 54 70 88 111 117 127 154 184 229 258 280 289 286 281 288 299 304 308 312 311 306 304 308 317 325 329 335 337 334 337 355 9 8 4 356 348 348 350 346 334 316 295 274 253 232 196 170 162 159 158 160 159 153 147 145 145 145 146 146 148 150 150 148 147 149 151 149
21 19 17 17 19 21 21 20 20 22 25 29 35 36 36 38 45 49 48 53 66 75 83 97 112 122 124 117 115 264 287 299 305 316 326 323 310 307 316 321 319 314 316 321 324 326 329 328 325 325 332 340 340 335 329 321 319 322 321 307 291 276 262 244 228 207 182 168 161 159 159 158 154 151 150 152 153 153 153 154 154 154 151 151 152 152 151
25 23 21 20 21 23 23 22 22 24 27 30 35 38 37 37 42 52 60 65 72 81 90 97 102 98 83 65 38 11 351 329 319 322 326 321 316 321 329 332 330 328 324 320 318 318 319 317 314 313 314 312 308 306 305 301 296 287 274 265 265 264 259 245 226 207 189 174 166 163 161 160 158 157 156 157 158 157 157 158 159 158 156 155 156 156 156
27 24 23 22 22 22 23 24 24 25 28 33 37 40 41 39 39 43 51 59 66 74 80 84 86 83 73 62 54 42 9 331 316 314 312 310 312 316 318 320 323 323 320 316 312 309 307 308 307 302 298 296 294 292 291 287 281 271 260 254 250 246 241 236 224 208 191 179 172 168 165 163 162 161 161 161 161 162 162 163 163 161 159 159 160 160 161
29 28 26 26 26 24 24 25 25 25 27 32 38 42 45 45 44 43 44 48 58 69 73 73 76 81 82 78 72 64 48 19 347 320 307 308 314 314 315 320 323 321 315 309 305 302 302 305 302 293 288 288 287 286 283 275 265 253 244 241 240 234 225 217 208 197 186 178 173 170 167 166 165 163 162 163 163 163 163 163 162 161 160 161 162 163 165
32 32 31 29 28 27 26 27 28 30 29 30 33 40 45 48 50 51 50 47 50 61 70 74 76 81 86 87 85 80 70 61 53 40 26 27 24 4 348 337 327 317 309 301 296 293 295 296 289 279 274 274 273 271 265 256 244 233 223 219 219 217 211 203 194 185 179 176 174 170 168 166 164 162 160 161 161 160 160 161 160 159 159 160 160 162 165
33 34 34 31 29 29 29 30 32 34 34 32 33 38 44 48 51 54 56 55 53 54 61 69 74 77 80 82 84 84 80 73 68 64 62 61 57 44 28 7 340 319 309 301 296 293 291 284 273 264 257 250 242 235 230 225 219 211 203 198 195 192 189 185 178 172 170 170 168 164 161 159 157 156 155 155 154 153 154 154 153 152 152 152 152 153 154
33 32 32 31 30 31 32 34 36 37 36 36 36 39 42 47 50 52 55 59 60 59 59 61 65 69 72 74 75 75 75 76 76 75 72 68 61 53 42 27 9 352 336 324 55 78 39 249 226 221 219 212 201 192 188 189 187 179 172 169 167 165 162 160 157 156 156 156 155 153 150 148 147 148 148 146 144 143 143 142 141 140 140 141 141 141 141
28 28 28 29 31 32 33 34 38 40 40 40 42 43 41 42 46 50 52 56 60 63 64 65 65 65 67 68 69 69 70 72 74 74 71 64 57 53 50 50 55 55 54 81 103 96 88 102 148 164 162 160 161 158 153 152 152 149 145 144 144 143 143 142 141 141 141 140 140 139 139 137 135 135 136 135 133 133 133 133 131 131 131 131 131 131 131
21 24 25 26 28 34 35 35 38 42 44 44 44 45 44 43 46 49 51 53 57 61 64 68 71 73 72 72 71 71 70 71 71 72 72 71 68 66 70 76 79 79 79 87 93 91 88 98 122 141 143 141 141 139 134 133 134 135 133 131 130 129 128 129 129 129 129 129 128 127 126 125 123 123 124 124 124 124 125 125 124 123 122 121 121 120 120
27 29 30 28 23 23 32 37 39 43 48 49 46 45 45 46 48 50 52 55 59 60 61 62 67 72 77 78 77 75 75 74 72 70 72 78 83 84 82 79 79 82 84 84 83 84 88 95 107 119 129 134 134 131 128 127 127 127 125 122 120 118 118 118 118 118 118 118 118 118 118 116 115 116 117 118 118 118 119 120 120 119 118 118 118 118 119
36 35 34 30 22 14 16 31 43 49 54 56 52 47 44 44 46 49 53 55 57 60 62 62 62 65 71 76 77 76 77 78 76 72 69 72 78 81 81 80 80 80 80 79 79 81 87 93 99 107 116 122 124 123 122 120 118 116 114 112 110 109 108 108 107 107 107 107 108 108 108 108 108 109 110 111 112 113 114 115 115 115 116 117 117 117 117
36 32 29 28 23 15 12 24 50 60 60 59 56 51 47 45 46 48 50 52 55 57 59 60 61 63 67 72 75 75 74 76 79 80 79 77 76 75 76 77 78 78 79 80 80 80 82 85 88 93 99 105 107 108 108 107 105 103 102 101 99 98 98 98 98 98 98 97 97 97 97 98 99 101 102 103 103 104 105 106 107 108 110 111 111 111 110
30 28 26 26 24 19 17 23 51 73 68 64 63 63 58 54 51 48 46 48 52 56 57 57 59 60 61 66 74 78 78 77 81 85 87 85 83 80 78 78 77 78 80 82 83 82 81 81 81 83 86 88 90 91 93 93 93 92 92 91 91 90 90 89 89 89 88 88 89 90 91 91 91 92 94 95 96 96 97 97 98 99 101 101 101 100 99
27 27 27 30 30 27 25 28 44 83 90 75 69 67 63 58 56 52 46 44 48 53 57 59 60 60 61 63 69 76 80 83 86 88 90 91 90 88 86 85 85 84 83 83 83 81 81 80 81 81 80 80 80 81 82 83 84 84 84 84 84 84 82 80 80 79 80 82 84 86 86 86 85 85 87 89 90 91 93 93 94 94 94 94 93 93 91
28 27 28 32 36 38 37 36 37 52 103 99 73 64 58 55 55 53 48 45 46 51 55 58 61 62 65 67 69 72 77 82 85 87 89 92 92 92 90 89 89 88 88 87 86 85 84 84 84 83 82 81 80 80 79 79 78 78 79 79 78 77 75 73 72 72 73 75 76 77 77 78 79 82 85 87 88 89 89 88 87 86 85 84 83 83 82
Height
1474 1471 1472 1472 1473 1471 1467 1465 1462 1459 1459 1461 1462 1461 1457 1457 1460 1452 1439 1437 1438 1430 1423 1420 1417 1414 1413 1410 1408 1408 1408 1409 1411 1412 1412 1414 1415 1415 1417 1419 1421 1424 1426 1429 1431 1434 1436 1440 1443 1446 1451 1455 1458 1461 1465 1470 1474 1477 1481 1485 1489 1493 1497 1500 1503 1507 1511 1515 1518 1521 1524 1527 1530 1533 1535 1538 1540 1542 1544 1546 1548 1550 1552 1554 1555 1557 1559
1474 1470 1470 1470 1471 1468 1464 1462 1460 1457 1456 1455 1456 1456 1453 1453 1456 1450 1443 1442 1440 1433 1426 1423 1419 1416 1414 1412 1410 1409 1409 1409 1410 1410 1411 1411 1412 1413 1414 1414 1416 1418 1420 1423 1426 1429 1433 1436 1439 1442 1446 1450 1453 1456 1460 1465 1469 1473 1477 1480 1485 1489 1492 1495 1500 1504 1508 1511 1514 1517 1520 1523 1526 1529 1532 1534 1536 1538 1540 1542 1544 1546 1548 1550 1551 1553 1555
1474 1468 1466 1467 1466 1465 1462 1458 1455 1453 1453 1451 1450 1449 1447 1448 1450 1447 1446 1446 1440 1431 1426 1425 1421 1418 1416 1413 1411 1411 1409 1409 1409 1408 1408 1407 1407 1409 1410 1411 1412 1413 1414 1417 1421 1425 1428 1431 1434 1437 1441 1444 1448 1452 1457 1460 1465 1469 1473 1476 1481 1485 1488 1492 1496 1500 1504 1507 1510 1513 1517 1520 1522 1525 1528 1530 1532 1534 1536 1538 1540 1542 1544 1546 1547 1549 1551
1473 1465 1465 1464 1461 1461 1459 1455 1451 1450 1448 1446 1445 1444 1443 1446 1447 1445 1444 1444 1440 1432 1428 1426 1422 1418 1417 1415 1413 1413 1411 1410 1410 1408 1407 1405 1404 1404 1404 1406 1407 1408 1409 1413 1416 1420 1423 1426 1430 1433 1436 1441 1445 1449 1453 1456 1461 1465 1469 1473 1477 1481 1484 1488 1492 1496 1500 1503 1506 1509 1513 1516 1519 1522 1524 1527 1528 1530 1532 1534 1536 1538 1540 1541 1543 1545 1547
1473 1465 1466 1464 1461 1461 1454 1443 1439 1441 1441 1440 1440 1441 1444 1445 1446 1444 1441 1438 1437 1435 1431 1427 1423 1420 1418 1417 1416 1415 1414 1412 1411 1409 1406 1403 1401 1400 1399 1400 1402 1404 1405 1407 1410 1414 1417 1421 1425 1427 1432 1437 1440 1444 1448 1453 1458 1462 1465 1470 1474 1478 1481 1485 1488 1492 1496 1499 1502 1506 1509 1512 1515 1518 1520 1522 1524 1526 1529 1531 1533 1534 1536 1537 1539 1541 1543
1476 1467 1465 1464 1462 1458 1445 1430 1427 1431 1433 1435 1438 1442 1447 1447 1445 1445 1442 1439 1438 1437 1433 1430 1426 1422 1420 1418 1417 1416 1415 1413 1411 1408 1405 1401 1398 1396 1395 1395 1397 1399 1401 1403 1406 1409 1412 1416 1420 1424 1430 1434 1438 1442 1447 1451 1455 1459 1463 1467 1471 1474 1478 1481 1485 1489 1493 1496 1499 1502 1505 1509 1511 1514 1516 1518 1520 1523 1525 1527 1528 1530 1532 1534 1535 1537 1539
1480 1470 1466 1467 1461 1448 1437 1431 1429 1429 1430 1431 1435 1442 1447 1447 1446 1446 1444 1442 1440 1437 1434 1430 1425 1422 1420 1418 1416 1415 1414 1412 1409 1406 1402 1397 1394 1391 1391 1391 1392 1393 1396 1400 1403 1406 1409 1414 1419 1424 1429 1434 1438 1441 1445 1448 1453 1457 1460 1464 1468 1471 1475 1478 1482 1486 1489 1492 1495 1498 1502 1505 1507 1510 1512 1514 1517 1519 1521 1523 1524 1526 1529 1530 1531 1533 1535
1481 1474 1468 1462 1451 1439 1434 1435 1434 1433 1434 1433 1433 1441 1447 1447 1446 1448 1446 1443 1440 1437 1433 1428 1423 1420 1418 1415 1414 1413 1411 1409 1407 1403 1398 1393 1390 1388 1387 1388 1388 1389 1392 1395 1400 1403 1407 1412 1417 1421 1426 1431 1435 1438 1442 1446 1451 1454 1458 1462 1465 1469 1472 1475 1478 1482 1485 1488 1492 1495 1498 1501 1503 1505 1508 1510 1513 1516 1518 1519 1521 1523 1525 1526 1528 1529 1531
1479 1473 1462 1452 1446 1442 1439 1439 1440 1439 1440 1437 1434 1438 1445 1446 1446 1449 1448 1444 1440 1435 1430 1426 1420 1416 1414 1412 1411 1410 1408 1406 1403 1399 1395 1391 1387 1385 1385 1386 1386 1388 1391 1394 1399 1403 1406 1410 1414 1418 1424 1429 1432 1437 1441 1444 1448 1452 1456 1459 1462 1465 1468 1471 1475 1478 1481 1485 1488 1491 1494 1496 1499 1501 1504 1507 1510 1512 1514 1516 1517 1519 1521 1522 1524 1526 1527
1476 1473 1466 1456 1451 1448 1443 1440 1442 1441 1441 1440 1436 1436 1441 1444 1446 1448 1448 1444 1441 1436 1430 1425 1418 1413 1412 1410 1408 1407 1406 1403 1400 1397 1393 1389 1385 1383 1383 1384 1385 1387 1391 1394 1398 1402 1406 1410 1413 1417 1422 1426 1430 1434 1438 1441 1446 1450 1453 1456 1459 1462 1465 1468 1471 1474 1478 1481 1484 1488 1490 1492 1495 1498 1501 1503 1506 1508 1510 1512 1513 1515 1517 1519 1520 1522 1523
1477 1475 1470 1458 1449 1446 1443 1442 1442 1441 1440 1440 1438 1437 1441 1444 1446 1448 1447 1444 1441 1437 1433 1427 1417 1411 1411 1410 1408 1407 1405 1402 1400 1396 1392 1387 1384 1383 1382 1383 1384 1386 1389 1393 1397 1401 1405 1409 1413 1416 1420 1424 1428 1431 1435 1439 1443 1447 1450 1453 1456 1459 1462 1466 1469 1472 1475 1478 1481 1484 1486 1489 1492 1495 1497 1500 1502 1504 1506 1508 1510 1512 1514 1515 1516 1517 1519
1477 1474 1467 1456 1445 1443 1443 1442 1441 1441 1440 1442 1442 1440 1441 1445 1446 1447 1447 1445 1442 1439 1435 1430 1422 1418 1418 1416 1411 1408 1406 1402 1399 1396 1392 1388 1384 1383 1383 1383 1384 1386 1389 1392 1395 1399 1403 1407 1411 1415 1419 1423 1426 1429 1433 1438 1441 1444 1447 1450 1453 1457 1461 1464 1467 1470 1473 1475 1478 1481 1483 1486 1489 1492 1494 1497 1499 1501 1503 1505 1507 1508 1509 1511 1512 1513 1515
1476 1472 1466 1456 1446 1443 1445 1444 1442 1442 1441 1441 1440 1439 1443 1446 1446 1445 1447 1446 1443 1440 1437 1433 1429 1425 1423 1418 1413 1410 1406 1402 1399 1396 1393 1389 1386 1384 1384 1384 1385 1387 1389 1391 1394 1397 1401 1406 1410 1414 1418 1421 1424 1428 1432 1435 1438 1441 1444 1448 1452 1456 1459 1462 1465 1467 1470 1473 1475 1478 1481 1484 1486 1488 1491 1493 1495 1497 1499 1501 1502 1504 1505 1507 1508 1510 1511
1473 1469 1465 1456 1447 1445 1446 1444 1441 1441 1441 1440 1441 1443 1447 1447 1444 1444 1446 1445 1443 1440 1437 1435 1432 1426 1421 1416 1412 1410 1406 1401 1399 1398 1394 1390 1387 1386 1385 1385 1387 1388 1390 1392 1394 1397 1401 1405 1409 1412 1415 1419 1422 1426 1429 1432 1435 1439 1443 1446 1450 1453 1456 1459 1462 1465 1468 1470 1473 1476 1478 1480 1483 1485 1487 1489 1491 1493 1495 1497 1498 1500 1502 1503 1505 1506 1508
1469 1466 1463 1457 1451 1449 1448 1444 1442 1443 1445 1446 1448 1449 1449 1446 1442 1444 1445 1444 1442 1440 1436 1433 1430 1425 1420 1414 1410 1408 1405 1401 1401 1399 1395 1391 1389 1388 1387 1388 1388 1389 1390 1392 1394 1397 1400 1404 1407 1411 1414 1417 1421 1424 1427 1430 1434 1438 1441 1445 1448 1451 1454 1457 1460 1462 1465 1468 1470 1473 1475 1477 1479 1481 1484 1486 1488 1489 1491 1493 1495 1496 1498 1500 1501 1503 1504
1465 1462 1458 1456 1454 1452 1451 1448 1448 1449 1450 1451 1451 1450 1448 1445 1443 1443 1443 1442 1441 1439 1437 1434 1429 1425 1420 1413 1408 1407 1405 1403 1402 1400 1397 1393 1392 1391 1390 1390 1389 1390 1391 1392 1394 1397 1400 1403 1407 1410 1412 1415 1418 1422 1425 1428 1433 1436 1440 1443 1446 1449 1452 1455 1457 1460 1462 1465 1467 1470 1472 1474 1476 1478 1480 1482 1484 1486 1488 1490 1491 1493 1494 1496 1498 1499 1500
1464 1460 1457 1457 1456 1454 1452 1452 1451 1451 1451 1451 1451 1450 1448 1446 1443 1443 1442 1441 1440 1438 1437 1435 1431 1426 1421 1414 1409 1408 1406 1404 1403 1401 1398 1396 1395 1394 1393 1392 1392 1392 1392 1393 1396 1398 1400 1403 1406 1409 1412 1414 1417 1420 1423 1427 1431 1435 1438 1442 1444 1447 1450 1452 1454 1457 1460 1462 1464 1466 1469 1471 1472 1474 1476 1478 1480 1482 1484 1486 1487 1489 1491 1492 1494 1495 1496
1463 1460 1458 1457 1455 1453 1452 1452 1451 1451 1450 1450 1450 1450 1448 1445 1443 1442 1441 1440 1439 1438 1436 1435 1432 1427 1422 1417 1412 1409 1406 1405 1405 1403 1400 1399 1398 1397 1396 1395 1395 1395 1394 1396 1397 1399 1401 1404 1406 1410 1413 1415 1417 1419 1423 1426 1430 1433 1437 1439 1442 1445 1447 1449 1452 1455 1457 1459 1461 1463 1465 1467 1469 1471 1473 1475 1476 1478 1480 1481 1483 1485 1487 1488 1490 1491 1492
1462 1459 1457 1456 1454 1452 1451 1450 1451 1450 1450 1450 1449 1448 1446 1444 1442 1441 1440 1440 1440 1438 1436 1436 1433 1428 1424 1420 1414 1409 1407 1406 1406 1405 1404 1402 1401 1400 1400 1399 1399 1398 1398 1398 1399 1401 1402 1404 1407 1410 1413 1416 1419 1420 1423 1426 1428 1431 1434 1437 1440 1443 1445 1447 1450 1452 1454 1456 1458 1460 1462 1464 1466 1468 1469 1471 1472 1474 1475 1477 1479 1481 1483 1484 1485 1487 1488
1462 1459 1457 1456 1453 1451 1449 1449 1450 1449 1449 1448 1447 1446 1445 1443 1441 1440 1440 1440 1440 1438 1437 1436 1433 1429 1426 1422 1415 1411 1409 1408 1408 1408 1407 1405 1405 1404 1403 1403 1402 1402 1401 1402 1403 1404 1405 1406 1409 1411 1413 1416 1419 1421 1423 1425 1427 1430 1432 1435 1438 1441 1443 1446 1448 1449 1451 1453 1455 1457 1459 1460 1462 1464 1465 1467 1468 1469 1471 1473 1475 1477 1478 1480 1481 1483 1485
1462 1459 1457 1455 1453 1450 1448 1448 1448 1447 1447 1446 1444 1443 1443 1441 1440 1439 1439 1439 1440 1439 1437 1436 1434 1430 1426 1421 1416 1413 1411 1410 1409 1410 1410 1409 1408 1407 1407 1406 1405 1405 1405 1406 1406 1407 1408 1409 1411 1413 1415 1417 1420 1421 1423 1425 1427 1429 1431 1434 1436 1438 1441 1443 1446 1447 1449 1451 1453 1454 1456 1457 1458 1460 1461 1462 1464 1465 1467 1469 1471 1473 1475 1476 1478 1479 1481
1463 1461 1460 1459 1457 1453 1449 1447 1446 1446 1445 1444 1441 1440 1440 1440 1440 1440 1439 1439 1440 1439 1437 1436 1434 1431 1427 1422 1417 1413 1412 1412 1412 1412 1413 1412 1411 1411 1410 1410 1409 1408 1408 1408 1409 1409 1410 1411 1413 1414 1416 1418 1420 1422 1424 1425 1427 1429 1431 1432 1434 1436 1438 1441 1443 1445 1447 1449 1450 1452 1453 1454 1455 1456 1457 1459 1460 1462 1464 1465 1467 1470 1471 1473 1475 1476 1477
1465 1462 1460 1459 1458 1455 1450 1447 1446 1445 1444 1442 1439 1437 1438 1439 1440 1440 1440 1439 1439 1438 1437 1436 1434 1432 1428 1423 1417 1413 1412 1413 1414 1414 1414 1414 1414 1414 1414 1413 1413 1412 1412 1411 1411 1411 1412 1413 1414 1416 1417 1419 1421 1423 1424 1425 1427 1429 1430 1432 1433 1435 1437 1439 1440 1442 1445 1446 1448 1449 1450 1451 1452 1453 1454 1455 1457 1459 1460 1462 1464 1466 1468 1470 1472 1473 1474
1464 1462 1460 1458 1456 1452 1449 1447 1445 1443 1442 1440 1436 1435 1437 1438 1439 1440 1440 1439 1439 1438 1435 1434 1433 1431 1428 1424 1419 1416 1414 1414 1414 1416 1417 1416 1416 1417 1416 1416 1416 1416 1415 1415 1414 1414 1414 1415 1416 1417 1418 1419 1421 1423 1424 1425 1427 1428 1430 1431 1432 1434 1435 1437 1438 1440 1442 1444 1445 1447 1448 1449 1450 1450 1451 1452 1454 1455 1457 1459 1461 1463 1465 1467 1468 1470 1471
1464 1462 1459 1456 1454 1451 1448 1446 1443 1441 1440 1438 1435 1435 1436 1437 1438 1439 1439 1439 1440 1438 1436 1434 1432 1430 1427 1424 1421 1419 1417 1416 1416 1417 1418 1418 1418 1419 1419 1419 1419 1419 1419 1418 1417 1417 1417 1418 1418 1419 1420 1421 1422 1423 1424 1425 1426 1427 1429 1430 1431 1432 1434 1435 1437 1438 1440 1441 1443 1445 1446 1447 1448 1448 1449 1450 1451 1453 1455 1456 1458 1460 1462 1464 1465 1467 1468
1464 1461 1457 1454 1451 1449 1447 1445 1442 1439 1438 1437 1435 1434 1435 1436 1437 1437 1437 1438 1439 1438 1437 1435 1433 1430 1428 1425 1423 1423 1422 1420 1419 1419 1419 1419 1420 1421 1422 1422 1422 1422 1422 1421 1421 1420 1420 1420 1421 1421 1422 1422 1423 1424 1425 1425 1426 1427 1428 1429 1430 1431 1432 1433 1435 1437 1438 1440 1441 1442 1444 1445 1446 1446 1447 1448 1449 1451 1453 1454 1456 1457 1459 1460 1462 1464 1465
1463 1461 1457 1453 1449 1447 1445 1444 1442 1439 1437 1436 1435 1434 1434 1435 1435 1435 1436 1437 1438 1438 1437 1436 1434 1432 1429 1426 1425 1426 1426 1424 1423 1422 1422 1422 1422 1424 1424 1425 1425 1424 1424 1423 1423 1422 1422 1422 1423 1423 1423 1424 1424 1425 1425 1426 1427 1428 1429 1428 1429 1429 1431 1432 1434 1435 1436 1438 1439 1440 1441 1442 1443 1444 1445 1447 1448 1450 1451 1453 1454 1455 1456 1458 1459 1461 1463
1462 1460 1458 1455 1453 1450 1447 1444 1442 1439 1437 1435 1434 1433 1433 1433 1433 1434 1435 1436 1437 1437 1436 1435 1434 1433 1431 1428 1427 1428 1428 1428 1427 1426 1425 1425 1426 1426 1427 1427 1427 1426 1425 1425 1424 1424 1424 1424 1424 1424 1425 1425 1425 1426 1426 1427 1428 1429 1428 1428 1428 1429 1430 1432 1433 1434 1435 1436 1437 1438 1439 1440 1442 1443 1444 1446 1447 1449 1450 1451 1452 1453 1455 1456 1457 1459 1461
1462 1460 1458 1457 1454 1451 1446 1443 1440 1438 1436 1435 1434 1433 1432 1432 1433 1433 1434 1435 1436 1436 1435 1435 1434 1433 1432 1430 1429 1429 1430 1429 1428 1428 1427 1427 1428 1429 1429 1429 1429 1428 1427 1426 1426 1426 1425 1425 1425 1425 1425 1425 1426 1427 1427 1428 1427 1427 1427 1428 1430 1431 1431 1432 1433 1433 1434 1435 1436 1437 1438 1439 1441 1442 1443 1445 1446 1447 1448 1450 1451 1452 1453 1454 1455 1457 1459
1463 1461 1458 1456 1453 1450 1446 1442 1440 1438 1436 1435 1433 1433 1432 1432 1432 1433 1434 1434 1434 1435 1435 1435 1434 1433 1432 1431 1430 1430 1430 1430 1430 1429 1428 1428 1430 1431 1431 1430 1430 1430 1429 1428 1427 1426 1426 1425 1425 1425 1425 1426 1427 1427 1427 1426 1426 1427 1428 1430 1431 1432 1432 1433 1433 1433 1434 1435 1436 1437 1438 1439 1440 1441 1442 1444 1445 1446 1447 1448 1449 1450 1451 1453 1454 1456 1457
1465 1463 1460 1456 1453 1450 1447 1444 1442 1439 1437 1435 1433 1432 1432 1432 1432 1432 1432 1432 1433 1433 1433 1434 1434 1433 1433 1432 1432 1431 1431 1432 1432 1431 1430 1431 1433 1434 1433 1431 1431 1430 1430 1429 1428 1427 1426 1425 1425 1425 1426 1427 1427 1427 1426 1426 1427 1428 1430 1431 1432 1433 1433 1433 1433 1433 1433 1434 1435 1437 1438 1439 1439 1440 1441 1442 1443 1444 1445 1446 1448 1449 1451 1453 1455 1456 1458
1467 1463 1460 1457 1454 1452 1449 1445 1443 1440 1437 1435 1434 1433 1432 1432 1431 1430 1430 1430 1430 1430 1431 1431 1432 1433 1433 1432 1432 1432 1432 1432 1433 1433 1433 1434 1435 1436 1435 1434 1432 1431 1431 1431 1430 1429 1428 1427 1426 1426 1427 1427 1427 1426 1425 1426 1428 1430 1431 1432 1433 1434 1434 1434 1433 1433 1433 1434 1435 1436 1437 1438 1439 1440 1440 1441 1441 1443 1444 1445 1447 1449 1450 1453 1456 1458 1460
1467 1463 1460 1458 1455 1453 1450 1448 1445 1442 1439 1437 1435 1433 1432 1431 1430 1429 1429 1429 1428 1428 1428 1429 1430 1431 1432 1432 1432 1432 1432 1431 1432 1434 1435 1436 1437 1437 1436 1435 1433 1431 1431 1432 1432 1431 1431 1430 1429 1428 1428 1427 1426 1425 1425 1427 1429 1431 1432 1432 1433 1435 1435 1435 1434 1433 1433 1433 1434 1435 1436 1438 1439 1440 1440 1441 1441 1442 1444 1445 1447 1449 1451 1454 1458 1460 1462
1470 1467 1465 1462 1459 1457 1454 1451 1448 1444 1441 1438 1436 1433 1431 1430 1429 1429 1428 1428 1427 1427 1427 1428 1429 1430 1431 1432 1432 1432 1432 1432 1433 1435 1437 1438 1438 1436 1436 1435 1434 1432 1431 1433 1434 1435 1435 1433 1431 1430 1429 1428 1427 1426 1426 1428 1430 1431 1432 1433 1434 1436 1436 1436 1435 1434 1433 1433 1433 1434 1436 1437 1439 1440 1441 1442 1443 1444 1446 1448 1449 1449 1450 1452 1456 1459 1461
1473 1471 1468 1465 1462 1459 1456 1453 1450 1446 1443 1439 1437 1434 1432 1430 1429 1428 1427 1427 1427 1427 1427 1428 1428 1429 1430 1431 1431 1432 1432 1432 1433 1435 1436 1437 1437 1436 1435 1436 1435 1434 1432 1433 1435 1437 1438 1436 1434 1432 1430 1429 1428 1427 1427 1429 1430 1431 1432 1433 1435 1436 1437 1438 1437 1436 1434 1433 1434 1435 1436 1437 1439 1440 1442 1443 1445 1446 1447 1449 1450 1451 1451 1453 1456 1458 1461
1473 1471 1468 1465 1463 1460 1457 1454 1451 1448 1445 1442 1439 1436 1433 1431 1429 1428 1426 1426 1426 1427 1427 1428 1428 1429 1430 1431 1432 1432 1432 1432 1433 1434 1435 1436 1436 1436 1435 1435 1436 1435 1434 1433 1434 1436 1437 1437 1435 1432 1430 1428 1427 1427 1428 1429 1430 1430 1432 1433 1435 1436 1438 1438 1438 1437 1436 1435 1435 1435 1436 1438 1439 1440 1442 1444 1446 1447 1448 1449 1451 1452 1453 1454 1456 1458 1459
1474 1471 1469 1466 1464 1462 1459 1456 1453 1450 1447 1444 1441 1437 1434 1432 1430 1429 1427 1426 1426 1426 1427 1428 1429 1430 1431 1432 1432 1432 1433 1433 1433 1433 1434 1435 1435 1435 1435 1435 1435 1435 1434 1433 1433 1434 1435 1435 1434 1431 1428 1426 1426 1427 1429 1429 1430 1430 1431 1433 1434 1436 1437 1439 1439 1439 1438 1436 1436 1437 1438 1439 1440 1442 1444 1445 1446 1447 1449 1450 1451 1452 1454 1455 1456 1457 1458
1475 1473 1470 1468 1466 1464 1461 1459 1456 1453 1450 1446 1442 1439 1437 1435 1432 1430 1428 1427 1426 1427 1427 1428 1429 1430 1431 1431 1432 1433 1433 1433 1433 1433 1433 1433 1433 1434 1433 1433 1433 1433 1432 1432 1432 1432 1432 1432 1431 1430 1428 1427 1427 1429 1430 1431 1431 1431 1431 1432 1433 1435 1437 1438 1440 1440 1439 1438 1437 1438 1439 1440 1441 1443 1445 1446 1447 1448 1450 1451 1452 1453 1454 1455 1456 1457 1458
1477 1474 1472 1470 1468 1466 1464 1462 1459 1455 1452 1448 1445 1442 1439 1437 1434 1432 1430 1429 1428 1428 1428 1428 1429 1429 1430 1430 1431 1432 1432 1431 1431 1431 1431 1431 1431 1431 1432 1432 1432 1431 1431 1431 1431 1431 1430 1430 1430 1429 1429 1428 1428 1430 1431 1432 1432 1431 1431 1431 1432 1434 1436 1438 1439 1440 1440 1440 1439 1439 1440 1441 1443 1444 1445 1447 1448 1449 1451 1452 1452 1453 1455 1456 1457 1459 1460
1479 1477 1474 1472 1470 1468 1466 1464 1461 1458 1455 1452 1448 1445 1442 1439 1436 1434 1432 1431 1430 1430 1430 1429 1429 1429 1430 1431 1431 1431 1431 1431 1430 1430 1430 1429 1429 1429 1430 1430 1429 1429 1429 1429 1429 1429 1429 1429 1429 1429 1429 1429 1429 1430 1432 1433 1433 1432 1431 1431 1432 1433 1435 1437 1439 1440 1441 1441 1441 1441 1441 1442 1443 1445 1446 1448 1449 1450 1452 1453 1454 1455 1456 1458 1459 1460 1462
1481 1479 1477 1475 1472 1470 1468 1466 1464 1461 1458 1454 1451 1448 1446 1442 1439 1437 1435 1435 1434 1432 1431 1431 1431 1431 1432 1432 1432 1432 1432 1431 1430 1430 1429 1429 1429 1429 1429 1428 1428 1428 1428 1427 1427 1427 1428 1428 1429 1429 1429 1429 1429 1430 1432 1433 1433 1432 1431 1431 1432 1433 1434 1437 1439 1441 1442 1442 1442 1442 1443 1443 1444 1446 1447 1449 1450 1452 1453 1455 1456 1457 1458 1460 1461 1462 1463
1483 1481 1480 1478 1476 1473 1470 1468 1465 1463 1460 1457 1455 1452 1450 1447 1444 1442 1440 1439 1438 1435 1433 1433 1434 1434 1434 1434 1434 1434 1434 1433 1432 1431 1431 1430 1430 1430 1430 1430 1429 1429 1428 1427 1427 1428 1428 1429 1429 1429 1429 1428 1429 1430 1431 1432 1433 1432 1430 1429 1431 1432 1434 1436 1439 1441 1442 1443 1443 1443 1444 1444 1445 1447 1448 1450 1452 1454 1455 1457 1458 1459 1460 1461 1462 1463 1464
1485 1483 1482 1480 1479 1476 1474 1471 1468 1465 1463 1461 1459 1456 1454 1452 1450 1447 1445 1443 1442 1440 1438 1437 1436 1435 1435 1436 1436 1435 1436 1436 1435 1434 1434 1433 1433 1433 1433 1432 1431 1430 1429 1429 1429 1429 1430 1431 1431 1430 1429 1428 1429 1430 1431 1432 1432 1432 1430 1430 1431 1432 1434 1436 1439 1441 1442 1443 1444 1444 1445 1446 1446 1448 1449 1451 1452 1455 1457 1458 1460 1461 1462 1462 1463 1464 1465
1486 1485 1484 1483 1481 1479 1476 1474 1471 1468 1466 1464 1463 1460 1458 1456 1454 1452 1450 1448 1446 1445 1444 1442 1440 1439 1438 1438 1437 1437 1438 1438 1438 1437 1437 1436 1436 1436 1435 1435 1434 1433 1433 1432 1432 1432 1433 1434 1433 1431 1430 1430 1430 1430 1431 1432 1433 1433 1432 1431 1432 1432 1434 1436 1439 1441 1443 1444 1445 1446 1446 1447 1448 1449 1450 1452 1453 1455 1458 1459 1460 1461 1462 1463 1464 1465 1466
1488 1486 1485 1484 1483 1481 1479 1477 1474 1472 1470 1468 1466 1464 1462 1460 1458 1456 1455 1453 1451 1450 1449 1448 1446 1444 1443 1442 1441 1441 1441 1441 1440 1439 1439 1439 1439 1439 1439 1439 1438 1437 1436 1436 1435 1436 1436 1437 1435 1434 1433 1432 1433 1433 1434 1434 1435 1435 1434 1434 1434 1434 1435 1437 1439 1442 1444 1446 1447 1448 1448 1449 1449 1450 1452 1454 1456 1457 1459 1460 1461 1462 1463 1464 1465 1467 1467
1489 1487 1486 1485 1484 1483 1481 1480 1478 1475 1473 1471 1469 1467 1466 1464 1463 1461 1459 1458 1456 1455 1454 1453 1452 1450 1448 1447 1447 1446 1445 1444 1443 1443 1443 1443 1443 1444 1443 1443 1442 1441 1440 1440 1439 1439 1440 1440 1439 1437 1436 1436 1436 1436 1437 1438 1438 1438 1438 1438 1438 1438 1439 1440 1442 1444 1446 1447 1449 1450 1451 1451 1452 1453 1455 1457 1459 1460 1462 1462 1463 1464 1465 1466 1467 1468 1470
1489 1488 1487 1486 1485 1484 1483 1482 1480 1478 1476 1473 1471 1470 1469 1468 1467 1465 1464 1462 1460 1459 1459 1458 1456 1454 1453 1451 1451 1450 1449 1448 1447 1448 1448 1447 1447 1447 1446 1446 1445 1445 1444 1443 1443 1443 1443 1444 1443 1441 1440 1439 1439 1439 1440 1441 1442 1442 1443 1443 1443 1444 1445 1446 1447 1447 1448 1450 1451 1452 1453 1455 1455 1456 1458 1460 1462 1463 1464 1465 1465 1465 1466 1467 1468 1470 1471
1490 1489 1488 1487 1485 1484 1483 1482 1481 1480 1478 1476 1475 1473 1472 1471 1470 1469 1468 1466 1464 1463 1462 1461 1460 1458 1457 1456 1454 1454 1453 1451 1450 1451 1452 1451 1450 1449 1449 1449 1449 1449 1448 1447 1446 1447 1448 1449 1448 1446 1444 1442 1442 1442 1444 1445 1446 1447 1447 1449 1450 1450 1451 1451 1452 1452 1453 1454 1455 1456 1457 1458 1459 1460 1462 1464 1466 1467 1467 1467 1467 1467 1468 1468 1469 1470 1471
1490 1489 1488 1487 1486 1484 1483 1482 1482 1481 1480 1479 1478 1476 1475 1474 1472 1471 1470 1469 1467 1466 1465 1464 1463 1462 1461 1459 1458 1458 1457 1455 1454 1454 1454 1454 1453 1453 1452 1452 1453 1453 1452 1451 1451 1452 1453 1454 1454 1453 1451 1449 1449 1449 1449 1450 1451 1451 1452 1454 1455 1456 1457 1457 1458 1458 1459 1459 1459 1460 1461 1462 1463 1465 1467 1468 1469 1469 1469 1469 1469 1469 1469 1469 1470 1471 1472
1491 1490 1489 1488 1486 1485 1483 1483 1482 1482 1481 1481 1480 1479 1478 1476 1475 1474 1473 1471 1470 1469 1468 1467 1466 1465 1464 1463 1462 1461 1460 1459 1458 1458 1457 1456 1456 1456 1456 1456 1456 1457 1456 1456 1457 1457 1458 1459 1460 1460 1459 1458 1457 1456 1456 1456 1456 1456 1457 1458 1460 1462 1463 1464 1464 1464 1464 1464 1465 1465 1466 1467 1468 1469 1470 1471 1471 1472 1471 1471 1471 1471 1471 1471 1471 1472 1473
1491 1490 1489 1488 1487 1486 1484 1483 1483 1482 1482 1482 1481 1481 1480 1479 1478 1477 1476 1475 1473 1472 1471 1470 1469 1468 1467 1466 1465 1464 1463 1462 1462 1461 1460 1459 1459 1459 1459 1459 1460 1460 1460 1460 1461 1462 1463 1464 1464 1465 1465 1465 1463 1463 1463 1463 1462 1461 1462 1463 1465 1467 1468 1469 1470 1470 1470 1470 1470 1471 1471 1472 1472 1473 1473 1473 1474 1474 1474 1473 1473 1473 1473 1473 1473 1473 1474
1491 1490 1490 1489 1488 1487 1485 1484 1484 1483 1483 1483 1482 1481 1481 1480 1480 1479 1478 1477 1476 1475 1474 1473 1472 1471 1470 1470 1468 1467 1466 1465 1464 1463 1463 1462 1462 1462 1462 1462 1463 1463 1463 1464 1464 1465 1466 1467 1468 1468 1469 1468 1467 1467 1467 1467 1466 1466 1467 1469 1471 1472 1472 1473 1474 1474 1475 1475 1475 1475 1475 1475 1476 1476 1476 1476 1476 1476 1476 1475 1475 1475 1475 1474 1474 1475 1475